This demonstration page uses our WeatherBlox Daily Observations layout. Learn more.

Left ArrowRight Arrow

Hourly Observations for January 1, 2020

Temp ( °F °C ) Dew Point ( °F °C ) Humidity (%) Winds ( mph kmh ) Pressure ( in mb ) Visibility ( mi km ) Precip ( " mm )
12:53 am 00:53 Cloudy 41 5 29 -1.7 62 62 WSW 20 31 29.31 993 10 16 0.00 0.00
1:53 am 01:53 Cloudy 39 3.9 30 -1.1 70 70 WSW 17 28 29.30 992 10 16 0.00 0.00
2:53 am 02:53 Cloudy 39 3.9 34 1.1 82 82 SW 22 35 29.29 992 10 16 0.00 0.00
3:53 am 03:53 Cloudy 39 3.9 35 1.7 86 86 WSW 14 22 29.27 991 10 16 0.02 0.51
4:53 am 04:53 Cloudy 37 2.8 34 1.1 89 89 SW 10 17 29.26 991 10 16 0.00 0.00
5:53 am 05:53 Cloudy 39 3.9 35 1.7 86 86 VRB 3 6 29.26 991 10 16 0.00 0.00
6:53 am 06:53 Cloudy with Light Rain 37 2.8 34 1.1 89 89 W 9 15 29.27 991 10 16 0.00 0.00
7:53 am 07:53 Cloudy with Light Rain 36 2.2 34 1.1 93 93 W 8 13 29.28 991 8 13 0.04 1.02
8:08 am 08:08 Cloudy with Light Rain 37 2.8 34 1.1 89 89 W 12 19 29.31 993 6 10 0.01 0.25
8:40 am 08:40 Cloudy with Light Rain 39 3.9 34 1.1 82 82 W 20 31 29.31 992 10 16 0.03 0.76
8:53 am 08:53 Cloudy with Light Rain 38 3.3 34 1.1 86 86 W 14 22 29.29 992 10 16 0.03 0.76
9:53 am 09:53 Cloudy 38 3.3 35 1.7 89 89 SW 9 15 29.31 992 10 16 0.01 0.25
10:28 am 10:28 Cloudy 39 3.9 36 2.2 89 89 W 8 13 29.34 993 10 16 0.01 0.25
10:53 am 10:53 Cloudy 39 3.9 37 2.8 93 93 W 9 15 29.32 993 10 16 0.01 0.25
11:30 am 11:30 Cloudy 40 4.4 37 2.8 89 89 W 12 19 29.33 993 10 16 0.00 0.00
11:42 am 11:42 Cloudy 39 4 36 2 87 87 W 12 19 29.34 993 10 16 0.00 0.00
11:53 am 11:53 Cloudy 39 3.9 36 2.2 89 89 W 12 19 29.32 993 10 16 0.01 0.25
12:53 pm 12:53 Cloudy 39 3.9 36 2.2 89 89 SW 9 15 29.32 993 10 16 0.00 0.00
1:53 pm 13:53 Cloudy 40 4.4 37 2.8 89 89 W 6 9 29.34 993 10 16 0.00 0.00
2:53 pm 14:53 Cloudy 38 3.3 36 2.2 93 93 W 6 9 29.37 995 10 16 0.00 0.00
3:53 pm 15:53 Cloudy 37 2.8 34 1.1 89 89 W 7 11 29.40 996 10 16 0.00 0.00
4:53 pm 16:53 Mostly Cloudy 34 1.1 31 -0.6 89 89 WNW 6 9 29.44 997 10 16 0.00 0.00
5:53 pm 17:53 Cloudy 34 1.1 31 -0.6 89 89 W 6 9 29.45 997 10 16 0.00 0.00
6:53 pm 18:53 Cloudy 33 0.6 30 -1.1 89 89 SW 7 11 29.47 998 10 16 0.00 0.00
7:53 pm 19:53 Cloudy 33 0.6 30 -1.1 89 89 WSW 9 15 29.49 999 10 16 0.00 0.00
8:53 pm 20:53 Cloudy 33 0.6 31 -0.6 92 92 W 5 7 29.51 999 10 16 0.00 0.00
9:53 pm 21:53 Cloudy 34 1.1 32 0 92 92 SW 9 15 29.52 1000 10 16 0.00 0.00
10:53 pm 22:53 Cloudy with Light Wintry Mix 34 1.1 32 0 92 92 WSW 8 13 29.52 1000 10 16 0.00 0.00
11:53 pm 23:53 Cloudy 34 1.1 32 0 92 92 SW 7 11 29.51 999 10 16 0.00 0.00

Powered by AerisWeather